When you browse on this site, cookies collect data to enhance your experience and personalize the content and advertising you see.
Visit our Privacy Policy to learn more. By continuing to use the site, you agree to this use of cookies and data.
  • In Romania
  • List of Countries
  • For 7 days
  • Water Temperature
  • Satellite Maps
  • Weather Map
  • Weather Widgets
  • user-avatar
    Login

    Hourly Weather Kolesovka

    Today, 25 April, Thursday

    Time Temperature Precipitation Wind Pressure Humidity
    00:00 +15°C° 0 mm 2 mps 755 mmHg 53%
    01:00 +14°C° 0 mm 2 mps 755 mmHg 55%
    02:00 +14°C° 0 mm 2 mps 755 mmHg 56%
    03:00 +13°C° 0 mm 2 mps 755 mmHg 58%
    04:00 +13°C° 0 mm 2 mps 755 mmHg 60%
    05:00 +13°C° 0 mm 2 mps 755 mmHg 61%
    06:00 +12°C° 0 mm 2 mps 755 mmHg 63%
    07:00 +14°C° 0 mm 2 mps 755 mmHg 58%
    08:00 +16°C° 0 mm 2 mps 755 mmHg 53%
    09:00 +18°C° 0 mm 3 mps 755 mmHg 48%
    10:00 +20°C° 0 mm 3 mps 755 mmHg 44%
    11:00 +21°C° 0 mm 3 mps 755 mmHg 39%
    12:00 +24°C° 0 mm 3 mps 754 mmHg 35%
    13:00 +24°C° 0 mm 3 mps 754 mmHg 33%
    14:00 +25°C° 0 mm 3 mps 754 mmHg 32%
    15:00 +25°C° 0 mm 3 mps 754 mmHg 31%
    16:00 +25°C° 0 mm 3 mps 753 mmHg 33%
    17:00 +24°C° 0 mm 2 mps 753 mmHg 35%
    18:00 +24°C° 0 mm 2 mps 753 mmHg 37%
    19:00 +21°C° 0 mm 2 mps 753 mmHg 41%
    20:00 +20°C° 0 mm 2 mps 753 mmHg 44%
    21:00 +18°C° 0 mm 2 mps 753 mmHg 48%
    22:00 +18°C° 0 mm 2 mps 753 mmHg 49%
    23:00 +18°C° 0 mm 2 mps 753 mmHg 50%

    Tomorrow, 26 April, Friday

    Time Temperature Precipitation Wind Pressure Humidity
    00:00 +17°C° 0 mm 2 mps 753 mmHg 51%
    01:00 +17°C° 0 mm 2 mps 753 mmHg 53%
    02:00 +17°C° 0 mm 2 mps 752 mmHg 54%
    03:00 +16°C° 0 mm 2 mps 752 mmHg 56%
    04:00 +15°C° 0.1 mm 2 mps 752 mmHg 57%
    05:00 +15°C° 0.1 mm 2 mps 752 mmHg 59%
    06:00 +14°C° 0.1 mm 1 mps 752 mmHg 60%
    07:00 +16°C° 0 mm 2 mps 752 mmHg 53%
    08:00 +18°C° 0 mm 2 mps 753 mmHg 46%
    09:00 +19°C° 0 mm 2 mps 753 mmHg 39%
    10:00 +20°C° 0 mm 2 mps 753 mmHg 36%
    11:00 +21°C° 0 mm 2 mps 753 mmHg 33%
    12:00 +23°C° 0 mm 2 mps 752 mmHg 30%
    13:00 +23°C° 0 mm 2 mps 752 mmHg 31%
    14:00 +23°C° 0 mm 1 mps 752 mmHg 31%
    15:00 +23°C° 0 mm 1 mps 752 mmHg 32%
    16:00 +23°C° 0 mm 1 mps 751 mmHg 34%
    17:00 +22°C° 0 mm 1 mps 751 mmHg 36%
    18:00 +22°C° 0 mm 1 mps 751 mmHg 38%
    19:00 +21°C° 0.1 mm 1 mps 751 mmHg 41%
    20:00 +19°C° 0.1 mm 1 mps 751 mmHg 44%
    21:00 +16°C° 0.1 mm 0 mps 751 mmHg 47%
    22:00 +16°C° 0 mm 1 mps 750 mmHg 48%
    23:00 +16°C° 0 mm 1 mps 750 mmHg 49%

    Day after tomorrow, 27 April, Saturday

    Time Temperature Precipitation Wind Pressure Humidity
    00:00 +15°C° 0 mm 1 mps 750 mmHg 51%
    01:00 +15°C° 0.1 mm 1 mps 750 mmHg 55%
    02:00 +15°C° 0.1 mm 1 mps 750 mmHg 59%
    03:00 +14°C° 0.1 mm 1 mps 749 mmHg 63%
    04:00 +14°C° 0 mm 1 mps 749 mmHg 65%
    05:00 +14°C° 0 mm 1 mps 749 mmHg 68%
    06:00 +14°C° 0 mm 2 mps 749 mmHg 71%
    07:00 +15°C° 0 mm 2 mps 748 mmHg 66%
    08:00 +17°C° 0 mm 2 mps 748 mmHg 61%
    09:00 +19°C° 0 mm 2 mps 748 mmHg 56%
    10:00 +20°C° 0 mm 3 mps 748 mmHg 51%
    11:00 +21°C° 0 mm 3 mps 747 mmHg 45%
    12:00 +22°C° 0 mm 4 mps 747 mmHg 39%
    13:00 +22°C° 0 mm 4 mps 747 mmHg 39%
    14:00 +22°C° 0 mm 4 mps 746 mmHg 39%
    15:00 +21°C° 0 mm 4 mps 746 mmHg 39%
    16:00 +21°C° 0 mm 4 mps 745 mmHg 42%
    17:00 +21°C° 0 mm 3 mps 745 mmHg 45%
    18:00 +20°C° 0 mm 2 mps 745 mmHg 48%
    19:00 +19°C° 0 mm 3 mps 744 mmHg 52%
    20:00 +18°C° 0 mm 3 mps 744 mmHg 55%
    21:00 +16°C° 0 mm 3 mps 744 mmHg 59%
    22:00 +16°C° 0.1 mm 3 mps 744 mmHg 60%
    23:00 +14°C° 0.1 mm 4 mps 744 mmHg 62%

    28 April, Sunday

    Time Temperature Precipitation Wind Pressure Humidity
    00:00 +14°C° 0.1 mm 4 mps 743 mmHg 64%
    01:00 +13°C° 0.1 mm 4 mps 743 mmHg 68%
    02:00 +13°C° 0.1 mm 3 mps 743 mmHg 73%
    03:00 +13°C° 0.1 mm 3 mps 743 mmHg 77%
    04:00 +12°C° 0.6 mm 3 mps 743 mmHg 80%
    05:00 +12°C° 0.6 mm 3 mps 743 mmHg 82%
    06:00 +13°C° 0.6 mm 2 mps 743 mmHg 85%
    07:00 +13°C° 1 mm 2 mps 743 mmHg 87%
    08:00 +13°C° 1 mm 2 mps 743 mmHg 88%
    09:00 +14°C° 1 mm 2 mps 743 mmHg 90%
    10:00 +14°C° 0.8 mm 2 mps 743 mmHg 87%
    11:00 +13°C° 0.8 mm 3 mps 744 mmHg 84%
    12:00 +14°C° 0.8 mm 3 mps 744 mmHg 81%
    13:00 +12°C° 0.1 mm 5 mps 744 mmHg 80%
    14:00 +10°C° 0.1 mm 6 mps 745 mmHg 79%
    15:00 +9°C° 0.1 mm 7 mps 745 mmHg 78%
    16:00 +9°C° 0 mm 7 mps 745 mmHg 75%
    17:00 +9°C° 0 mm 6 mps 745 mmHg 72%
    18:00 +9°C° 0 mm 6 mps 746 mmHg 69%
    19:00 +8°C° 0 mm 6 mps 747 mmHg 67%
    20:00 +8°C° 0 mm 5 mps 747 mmHg 65%
    21:00 +7°C° 0 mm 5 mps 748 mmHg 63%
    22:00 +6°C° 0 mm 5 mps 749 mmHg 62%
    23:00 +4°C° 0 mm 6 mps 749 mmHg 60%

    29 April, Monday

    Time Temperature Precipitation Wind Pressure Humidity
    00:00 +3°C° 0 mm 6 mps 750 mmHg 59%
    01:00 +2°C° 0 mm 5 mps 750 mmHg 60%
    02:00 +2°C° 0 mm 5 mps 751 mmHg 60%
    03:00 +1°C° 0 mm 5 mps 751 mmHg 61%
    04:00 +1°C° 0 mm 5 mps 751 mmHg 60%
    05:00 0°C° 0 mm 5 mps 752 mmHg 60%
    06:00 0°C° 0 mm 5 mps 752 mmHg 60%
    07:00 +1°C° 0 mm 5 mps 753 mmHg 54%
    08:00 +2°C° 0 mm 5 mps 753 mmHg 48%
    09:00 +3°C° 0 mm 6 mps 753 mmHg 42%
    10:00 +4°C° 0 mm 6 mps 753 mmHg 41%
    11:00 +5°C° 0 mm 6 mps 753 mmHg 39%
    12:00 +7°C° 0 mm 5 mps 753 mmHg 38%
    13:00 +7°C° 0 mm 5 mps 753 mmHg 38%
    14:00 +8°C° 0 mm 5 mps 753 mmHg 37%
    15:00 +8°C° 0 mm 4 mps 753 mmHg 37%
    16:00 +8°C° 0 mm 4 mps 752 mmHg 38%
    17:00 +8°C° 0 mm 4 mps 752 mmHg 38%
    18:00 +8°C° 0 mm 4 mps 752 mmHg 39%
    19:00 +8°C° 0 mm 3 mps 753 mmHg 43%
    20:00 +7°C° 0 mm 3 mps 753 mmHg 47%
    21:00 +6°C° 0 mm 2 mps 753 mmHg 51%
    22:00 +5°C° 0 mm 2 mps 754 mmHg 54%
    23:00 +4°C° 0 mm 2 mps 754 mmHg 56%

    30 April, Tuesday

    Time Temperature Precipitation Wind Pressure Humidity
    00:00 +4°C° 0 mm 2 mps 754 mmHg 58%
    01:00 +3°C° 0 mm 2 mps 754 mmHg 60%
    02:00 +3°C° 0 mm 2 mps 754 mmHg 61%
    03:00 +2°C° 0 mm 2 mps 754 mmHg 63%
    04:00 +2°C° 0 mm 2 mps 755 mmHg 64%
    05:00 +2°C° 0 mm 2 mps 755 mmHg 65%
    06:00 +2°C° 0 mm 2 mps 755 mmHg 66%
    07:00 +4°C° 0 mm 2 mps 755 mmHg 60%
    08:00 +4°C° 0 mm 3 mps 755 mmHg 54%
    09:00 +7°C° 0 mm 3 mps 755 mmHg 48%
    10:00 +8°C° 0 mm 3 mps 755 mmHg 45%
    11:00 +8°C° 0 mm 3 mps 755 mmHg 42%
    12:00 +9°C° 0 mm 3 mps 755 mmHg 39%
    13:00 +10°C° 0 mm 3 mps 755 mmHg 38%
    14:00 +10°C° 0 mm 3 mps 754 mmHg 37%
    15:00 +11°C° 0 mm 3 mps 754 mmHg 36%
    16:00 +10°C° 0 mm 2 mps 753 mmHg 37%
    17:00 +10°C° 0 mm 2 mps 753 mmHg 39%
    18:00 +10°C° 0 mm 2 mps 753 mmHg 40%
    19:00 +9°C° 0 mm 2 mps 753 mmHg 44%
    20:00 +8°C° 0 mm 2 mps 753 mmHg 48%
    21:00 +8°C° 0 mm 1 mps 753 mmHg 51%
    22:00 +7°C° 0 mm 1 mps 753 mmHg 52%
    23:00 +7°C° 0 mm 1 mps 753 mmHg 53%
    Show more